Location: Unspecified
(0.0000°N, 0.0000°E)
Time: 22:12:15
(UTC+00:00)

Envisat - Pass Details

Date: 12 August 2022
Orbit: 763 x 765 km, 98.2° (Epoch: 15 August)

Event Time Altitude Azimuth Distance (km) Brightness Sun altitude
Rises 04:50:48 0° 347° (NNW) 3,212 6.3 -17.9°
Reaches altitude 10° 04:53:34 10° 332° (NNW) 2,290 5.3 -17.3°
Enters shadow 04:57:15 22° 284° (WNW) 1,624 4.2 -16.4°
